カタリナ彗星

C/2013 F2 ( Catalina )

English version
Home page
Updated on June 11, 2016

---------------------------------------------------------------------

・ プロフィール

発見日 2013年3月24日
発見光度 18.1等
発見者 A. Boattini (Catalina Sky Survey)

・ 写真集

・ 軌道要素

Epoch 2013 Apr. 18.0 TT = JDT 2456400.5
T 2013 Apr. 18.85285 TT                                 MPC
q   6.2177989            (2000.0)            P               Q
z  +0.0001125      Peri.  122.97768     -0.41629146     -0.87731142
 +/-0.0000022      Node   344.27084     +0.19208973     +0.17185205
e   0.9993005      Incl.   61.75018     +0.88870859     -0.44809769
From 155 observations 2012 Dec. 28-2014 Apr. 23, mean residual 0".5.

・ 光度変化

        m1 = 6.5 + 5 logΔ + 10.0 log r

---------------------------------------------------------------------

軌道要素はM.P.E.C. 2014-K54に掲載されたものです。
光度グラフはComet for Windowsで作成したものです。

---------------------------------------------------------------------

Copyright(C) Seiichi Yoshida (comet@aerith.net). All rights reserved.